< < Back
Terminal Aerodrome Forecast


Current Version              Previous Versions:   1  2  3  4  5  6  7  8  9  

Terminal Aerodrome Forecast

304
FTUS42 KJAX 290520
TAFSSI
TAF
KSSI 290520Z 2906/3006 00000KT P6SM BKN250
      TEMPO 2908/2912 BKN015
     FM291400 34005KT P6SM SCT030
     FM291600 07008KT P6SM VCSH BKN040=

Latest METAR

590
SAUS70 KWBC 300000 RRN
MTRSSI
METAR KSSI 292353Z AUTO 10007KT 10SM CLR 28/24 A2995 RMK AO2 SLP141
T02780239 10317 20278 53010


USA.gov is the U.S. government's official web portal to all federal, state and local government web resources and services.